User: anonymous
Location: Montague
(41.3030°N, 74.7940°W)
Time: 03:05:00
(UTC-04:00)
Language:

Cosmos 1461 - Orbit

View from above orbital plane
View from above orbital plane
View from above satellite
View from above satellite

Ground track
Ground track

The orbit data is extracted from the following two-line orbital elements,

1 14064U 83044A   14238.70792209  .00002632  00000-0  25743-3 0  6048
2 14064 065.0036 210.0763 0093322 090.6298 270.6011 14.88847094570359
Epoch (UTC): 26 August 2014 16:59:24
Eccentricity: 0.0093322
inclination: 65.0036°
perigee height: 536 km
apogee height: 666 km
right ascension of ascending node: 210.0763°
argument of perigee: 90.6298°
revolutions per day: 14.88847094
mean anomaly at epoch: 270.6011°
orbit number at epoch: 57035

The dashed part of the orbit path shows where the satellite is in the earth's shadow,  

DLR